Location: Taaricht
(32.5378°N, 5.4251°W)
Time: 19:53:19
(UTC+00:00)

GPS 2-04 Rocket1 - Pass Details

Date: 09 April 2020
Orbit: 419 x 549 km, 35.6° (Epoch: 28 May)

Event Time Altitude Azimuth Distance (km) Brightness Sun altitude
Rises 19:53:48 0° 240° (WSW) 2,587 6.9 -14.3°
Reaches altitude 10° 19:56:00 10° 236° (SW) 1,726 5.8 -14.7°
Maximum altitude 19:59:54 56° 157° (SSE) 626 2.8 -15.5°
Enters shadow 20:01:41 30° 92° (E) 971 3.5 -15.9°
